Powrót do katalogu

SL-14 R/B

AktywnyPO
NORAD 16612·ROCKET BODY·🇷🇺 Russia

Wystrzelony Feb 19, 1986 z Plesetsk Cosmodrome

Loading…

Następne Przeloty (najbliższe 24 godziny)

TLE

ŚwieżeSource: Space-Track

Epoka: Sep 13, 2026, 21:36 UTC

1 16612U 86018B   26256.90066028  .00000359  00000-0  37461-4 0  9993
2 16612  82.5191   5.5871 0017364 154.3433 205.8650 14.86814044 71312

Śledź SL-14 R/B w czasie rzeczywistym z AllMySat

Download on the App Store